User: anonymous   Login
Location: Unspecified
(0.0000°N, 0.0000°E)
Time: 19:57:01
(UTC+00:00)
Language:

CBERS-4 - Orbit

View from above orbital plane
View from above orbital plane
View from above satellite
View from above satellite

Ground track
Ground track

The orbit data is extracted from the following two-line orbital elements,

1 40336U 14079A   19047.48596281 -.00000021  00000-0  74648-5 0  9999
2 40336  98.3852 117.7235 0001535  69.1651 290.9699 14.35495621219827
Epoch (UTC): 16 February 2019 11:39:47
Eccentricity: 0.0001535
inclination: 98.3852°
perigee height: 772 km
apogee height: 774 km
right ascension of ascending node: 117.7235°
argument of perigee: 69.1651°
revolutions per day: 14.35495621
mean anomaly at epoch: 290.9699°
orbit number at epoch: 21982

The dashed part of the orbit path shows where the satellite is in the earth's shadow,  

DLR